| time (UTC) | temp F | wind direction | speed MPH | gust MPH | rain 1hr in | rain 24hr in | rain mn in | humidity % | barometer mb |
| 20260508025554 | 56 | 223 | 3.0 | 9.0 | 0.00 | 0.00 | 0.00 | 89 | 1017.4 |
| 20260508025054 | 56 | 250 | 2.0 | 9.0 | 0.00 | 0.00 | 0.00 | 89 | 1017.4 |
| 20260508024605 | 56 | 215 | 2.0 | 10.0 | 0.00 | 0.00 | 0.00 | 88 | 1017.4 |
| 20260508024054 | 57 | 221 | 3.0 | 10.0 | 0.00 | 0.00 | 0.00 | 87 | 1017.4 |
| 20260508023554 | 57 | 221 | 3.0 | 7.0 | 0.00 | 0.00 | 0.00 | 87 | 1017.4 |
| 20260508023055 | 58 | 227 | 1.0 | 10.0 | 0.00 | 0.00 | 0.00 | 87 | 1017.2 |
| 20260508022557 | 58 | 173 | 2.0 | 10.0 | 0.00 | 0.00 | 0.00 | 86 | 1017.2 |
| 20260508022055 | 58 | 216 | 2.0 | 8.0 | 0.00 | 0.00 | 0.00 | 85 | 1017.3 |
| 20260508021554 | 59 | 242 | 1.0 | 8.0 | 0.00 | 0.00 | 0.00 | 85 | 1017.4 |
| 20260508021055 | 59 | 225 | 2.0 | 8.0 | 0.00 | 0.00 | 0.00 | 84 | 1017.3 |
| 20260508020555 | 59 | 255 | 1.0 | 8.0 | 0.00 | 0.00 | 0.00 | 85 | 1017.4 |
| 20260508020105 | 59 | 0 | 1.0 | 7.0 | 0.00 | 0.00 | 0.00 | 85 | 1017.3 |
| 20260508015555 | 59 | 214 | 2.0 | 8.0 | 0.00 | 0.00 | 0.00 | 85 | 1017.3 |
| 20260508015056 | 59 | 254 | 1.0 | 9.0 | 0.00 | 0.00 | 0.00 | 85 | 1017.3 |
| 20260508014606 | 59 | 259 | 2.0 | 9.0 | 0.00 | 0.00 | 0.00 | 84 | 1017.4 |
| 20260508014054 | 60 | 286 | 2.0 | 9.0 | 0.00 | 0.00 | 0.00 | 84 | 1017.4 |
| 20260508013555 | 59 | 240 | 3.0 | 9.0 | 0.00 | 0.00 | 0.00 | 85 | 1017.4 |
| 20260508013056 | 59 | 197 | 2.0 | 9.0 | 0.00 | 0.00 | 0.00 | 85 | 1017.2 |
| 20260508012556 | 59 | 221 | 3.0 | 9.0 | 0.00 | 0.00 | 0.00 | 85 | 1017.3 |
| 20260508012056 | 59 | 238 | 3.0 | 8.0 | 0.00 | 0.00 | 0.00 | 85 | 1017.4 |
| 20260508011554 | 59 | 269 | 2.0 | 10.0 | 0.00 | 0.00 | 0.00 | 85 | 1017.4 |
| 20260508011054 | 59 | 218 | 3.0 | 10.0 | 0.00 | 0.00 | 0.00 | 84 | 1017.4 |
| 20260508010554 | 59 | 241 | 2.0 | 8.0 | 0.00 | 0.00 | 0.00 | 84 | 1017.5 |
| 20260508010059 | 59 | 337 | 2.0 | 8.0 | 0.00 | 0.00 | 0.00 | 85 | 1017.4 |
| 20260508005556 | 59 | 241 | 4.0 | 11.0 | 0.00 | 0.00 | 0.00 | 84 | 1017.5 |
| 20260508005052 | 59 | 235 | 3.0 | 12.0 | 0.00 | 0.00 | 0.00 | 83 | 1017.5 |
| 20260508004557 | 60 | 208 | 4.0 | 12.0 | 0.00 | 0.00 | 0.00 | 83 | 1017.6 |
| 20260508004055 | 60 | 205 | 2.0 | 8.0 | 0.00 | 0.00 | 0.00 | 84 | 1017.6 |
| 20260508003556 | 60 | 236 | 2.0 | 10.0 | 0.00 | 0.00 | 0.00 | 84 | 1017.7 |
| 20260508003054 | 59 | 205 | 3.0 | 11.0 | 0.00 | 0.00 | 0.00 | 84 | 1017.6 |
| 20260508002553 | 59 | 200 | 5.0 | 13.0 | 0.00 | 0.00 | 0.00 | 84 | 1017.7 |
| 20260508002055 | 60 | 212 | 5.0 | 13.0 | 0.00 | 0.00 | 0.00 | 83 | 1017.7 |
| 20260508001554 | 60 | 197 | 3.0 | 12.0 | 0.00 | 0.00 | 0.00 | 83 | 1017.7 |
| 20260508001055 | 60 | 219 | 4.0 | 12.0 | 0.00 | 0.00 | 0.00 | 82 | 1017.8 |
| 20260508000555 | 60 | 267 | 3.0 | 11.0 | 0.00 | 0.00 | 0.00 | 83 | 1017.7 |
| 20260508000058 | 60 | 246 | 3.0 | 12.0 | 0.00 | 0.00 | 0.00 | 83 | 1017.7 |
| 20260507235555 | 60 | 265 | 4.0 | 12.0 | 0.00 | 0.00 | 0.00 | 83 | 1017.8 |
| 20260507235054 | 60 | 257 | 5.0 | 12.0 | 0.00 | 0.00 | 0.00 | 82 | 1017.7 |
| 20260507234559 | 60 | 213 | 4.0 | 11.0 | 0.00 | 0.00 | 0.00 | 83 | 1017.8 |
| 20260507234055 | 60 | 250 | 3.0 | 11.0 | 0.00 | 0.00 | 0.00 | 82 | 1017.9 |
| 20260507233556 | 60 | 238 | 5.0 | 12.0 | 0.00 | 0.00 | 0.00 | 82 | 1017.9 |
| 20260507233053 | 60 | 213 | 4.0 | 12.0 | 0.00 | 0.00 | 0.00 | 82 | 1017.8 |
| 20260507232554 | 60 | 258 | 5.0 | 12.0 | 0.00 | 0.00 | 0.00 | 82 | 1017.9 |
| 20260507232054 | 61 | 194 | 5.0 | 11.0 | 0.00 | 0.00 | 0.00 | 81 | 1018.0 |
| 20260507231554 | 61 | 281 | 3.0 | 13.0 | 0.00 | 0.00 | 0.00 | 81 | 1018.0 |
| 20260507231058 | 61 | 294 | 3.0 | 14.0 | 0.00 | 0.00 | 0.00 | 82 | 1018.0 |
| 20260507230559 | 61 | 260 | 4.0 | 14.0 | 0.00 | 0.00 | 0.00 | 82 | 1018.0 |
| 20260507230056 | 61 | 153 | 5.0 | 12.0 | 0.00 | 0.00 | 0.00 | 81 | 1018.0 |
| 20260507225555 | 61 | 235 | 3.0 | 14.0 | 0.00 | 0.00 | 0.00 | 81 | 1018.0 |
| 20260507225056 | 61 | 263 | 4.0 | 14.0 | 0.00 | 0.00 | 0.00 | 82 | 1017.9 |
| 20260507224557 | 61 | 238 | 4.0 | 12.0 | 0.00 | 0.00 | 0.00 | 81 | 1018.0 |
| 20260507224055 | 62 | 213 | 5.0 | 12.0 | 0.00 | 0.00 | 0.00 | 80 | 1017.9 |
| 20260507223556 | 63 | 265 | 3.0 | 10.0 | 0.00 | 0.00 | 0.00 | 79 | 1018.0 |
| 20260507223058 | 64 | 223 | 1.0 | 10.0 | 0.00 | 0.00 | 0.00 | 78 | 1018.0 |
| 20260507222555 | 63 | 217 | 2.0 | 10.0 | 0.00 | 0.00 | 0.00 | 79 | 1018.0 |
| 20260507222052 | 63 | 0 | 3.0 | 10.0 | 0.00 | 0.00 | 0.00 | 79 | 1018.0 |
| 20260507221555 | 64 | 236 | 2.0 | 8.0 | 0.00 | 0.00 | 0.00 | 79 | 1018.0 |
| 20260507221056 | 63 | 238 | 2.0 | 9.0 | 0.00 | 0.00 | 0.00 | 80 | 1018.1 |
| 20260507220555 | 63 | 226 | 2.0 | 9.0 | 0.00 | 0.00 | 0.00 | 79 | 1018.2 |
| 20260507220055 | 63 | 227 | 2.0 | 10.0 | 0.00 | 0.00 | 0.00 | 80 | 1018.2 |
| 20260507215556 | 62 | 211 | 3.0 | 10.0 | 0.00 | 0.00 | 0.00 | 80 | 1018.3 |
| 20260507215056 | 62 | 240 | 3.0 | 11.0 | 0.00 | 0.00 | 0.00 | 80 | 1018.3 |
| 20260507214554 | 62 | 257 | 2.0 | 11.0 | 0.00 | 0.00 | 0.00 | 80 | 1018.4 |
| 20260507214054 | 63 | 242 | 3.0 | 11.0 | 0.00 | 0.00 | 0.00 | 80 | 1018.4 |
| 20260507213552 | 63 | 310 | 3.0 | 9.0 | 0.00 | 0.00 | 0.00 | 79 | 1018.5 |
| 20260507213056 | 63 | 279 | 2.0 | 10.0 | 0.00 | 0.00 | 0.00 | 81 | 1018.5 |
| 20260507212551 | 62 | 0 | 2.0 | 10.0 | 0.00 | 0.00 | 0.00 | 79 | 1018.7 |
| 20260507212055 | 62 | 153 | 2.0 | 9.0 | 0.00 | 0.00 | 0.00 | 81 | 1018.5 |
| 20260507211600 | 62 | 234 | 3.0 | 10.0 | 0.00 | 0.00 | 0.00 | 80 | 1018.7 |
| 20260507211055 | 62 | 222 | 1.0 | 10.0 | 0.00 | 0.00 | 0.00 | 80 | 1018.8 |
| 20260507210556 | 62 | 286 | 4.0 | 10.0 | 0.00 | 0.00 | 0.00 | 80 | 1018.9 |
| 20260507210059 | 62 | 221 | 2.0 | 8.0 | 0.00 | 0.00 | 0.00 | 79 | 1018.9 |
| 20260507205556 | 62 | 237 | 2.0 | 11.0 | 0.00 | 0.00 | 0.00 | 80 | 1018.9 |
| 20260507205055 | 62 | 273 | 1.0 | 11.0 | 0.00 | 0.00 | 0.00 | 81 | 1018.9 |
| 20260507204556 | 62 | 254 | 3.0 | 9.0 | 0.00 | 0.00 | 0.00 | 79 | 1019.0 |
| 20260507204055 | 62 | 215 | 2.0 | 9.0 | 0.00 | 0.00 | 0.00 | 81 | 1019.1 |
| 20260507203555 | 62 | 242 | 2.0 | 9.0 | 0.00 | 0.00 | 0.00 | 81 | 1019.0 |
| 20260507203103 | 62 | 261 | 2.0 | 8.0 | 0.00 | 0.00 | 0.00 | 81 | 1019.1 |
| 20260507202555 | 62 | 213 | 2.0 | 8.0 | 0.00 | 0.00 | 0.00 | 81 | 1019.1 |
| 20260507202056 | 61 | 240 | 2.0 | 9.0 | 0.00 | 0.00 | 0.00 | 81 | 1019.0 |
| 20260507201601 | 61 | 306 | 3.0 | 10.0 | 0.00 | 0.00 | 0.00 | 82 | 1019.1 |
| 20260507201058 | 61 | 297 | 3.0 | 10.0 | 0.00 | 0.00 | 0.00 | 81 | 1019.1 |
| 20260507200556 | 61 | 244 | 2.0 | 9.0 | 0.00 | 0.00 | 0.00 | 82 | 1019.3 |
| 20260507200055 | 61 | 291 | 3.0 | 9.0 | 0.00 | 0.00 | 0.00 | 81 | 1019.2 |
| 20260507195554 | 61 | 266 | 2.0 | 7.0 | 0.00 | 0.00 | 0.00 | 81 | 1019.3 |
| 20260507195055 | 61 | 288 | 1.0 | 7.0 | 0.00 | 0.00 | 0.00 | 81 | 1019.3 |
| 20260507194556 | 60 | 226 | 2.0 | 7.0 | 0.00 | 0.00 | 0.00 | 81 | 1019.4 |
| 20260507194055 | 61 | 201 | 3.0 | 10.0 | 0.00 | 0.00 | 0.00 | 80 | 1019.5 |
| 20260507193555 | 61 | 273 | 1.0 | 10.0 | 0.00 | 0.00 | 0.00 | 80 | 1019.5 |
| 20260507193052 | 61 | 296 | 2.0 | 10.0 | 0.00 | 0.00 | 0.00 | 80 | 1019.5 |
| 20260507192551 | 61 | 211 | 2.0 | 9.0 | 0.00 | 0.00 | 0.00 | 80 | 1019.5 |
| 20260507192053 | 61 | 219 | 2.0 | 10.0 | 0.00 | 0.00 | 0.00 | 80 | 1019.5 |
| 20260507191605 | 61 | 0 | 2.0 | 10.0 | 0.00 | 0.00 | 0.00 | 80 | 1019.6 |
| 20260507191055 | 61 | 288 | 1.0 | 6.0 | 0.00 | 0.00 | 0.00 | 79 | 1019.6 |
| 20260507190553 | 61 | 276 | 1.0 | 5.0 | 0.00 | 0.00 | 0.00 | 80 | 1019.6 |
| 20260507190059 | 61 | 257 | 1.0 | 6.0 | 0.00 | 0.00 | 0.00 | 80 | 1019.6 |
| 20260507185552 | 61 | 234 | 2.0 | 8.0 | 0.00 | 0.00 | 0.00 | 80 | 1019.6 |
| 20260507185054 | 61 | 272 | 2.0 | 8.0 | 0.00 | 0.00 | 0.00 | 80 | 1019.6 |
| 20260507184600 | 61 | 243 | 2.0 | 5.0 | 0.00 | 0.00 | 0.00 | 80 | 1019.7 |
| 20260507184054 | 61 | 233 | 1.0 | 8.0 | 0.00 | 0.00 | 0.00 | 80 | 1019.6 |
| 20260507183554 | 60 | 250 | 0.0 | 8.0 | 0.00 | 0.00 | 0.00 | 81 | 1019.7 |
| 20260507183055 | 60 | 221 | 2.0 | 8.0 | 0.00 | 0.00 | 0.00 | 80 | 1019.8 |
| 20260507182556 | 60 | 0 | 1.0 | 8.0 | 0.00 | 0.00 | 0.00 | 81 | 1019.9 |
| 20260507182054 | 59 | 290 | 4.0 | 8.0 | 0.00 | 0.00 | 0.00 | 81 | 1019.9 |
| 20260507181554 | 60 | 307 | 1.0 | 7.0 | 0.00 | 0.00 | 0.00 | 81 | 1019.8 |
| 20260507181054 | 60 | 265 | 2.0 | 6.0 | 0.00 | 0.00 | 0.00 | 80 | 1019.8 |
| 20260507180555 | 60 | 0 | 2.0 | 6.0 | 0.00 | 0.00 | 0.00 | 80 | 1019.8 |
| 20260507175554 | 60 | 0 | 1.0 | 7.0 | 0.00 | 0.00 | 0.00 | 81 | 1019.9 |
| 20260507175055 | 59 | 298 | 1.0 | 5.0 | 0.00 | 0.00 | 0.00 | 82 | 1019.8 |
| 20260507174613 | 59 | 262 | 1.0 | 5.0 | 0.00 | 0.00 | 0.00 | 82 | 1019.8 |
| 20260507174053 | 59 | 286 | 1.0 | 6.0 | 0.00 | 0.00 | 0.00 | 82 | 1019.7 |
| 20260507173556 | 59 | 0 | 1.0 | 6.0 | 0.00 | 0.00 | 0.00 | 81 | 1019.9 |
| 20260507173058 | 59 | 205 | 1.0 | 7.0 | 0.00 | 0.00 | 0.00 | 82 | 1019.8 |
| 20260507172557 | 59 | 282 | 1.0 | 7.0 | 0.00 | 0.00 | 0.00 | 83 | 1019.8 |
| 20260507172054 | 58 | 247 | 2.0 | 5.0 | 0.00 | 0.00 | 0.00 | 83 | 1019.8 |
| 20260507171613 | 58 | 165 | 1.0 | 5.0 | 0.00 | 0.00 | 0.00 | 83 | 1019.8 |
| 20260507171055 | 57 | 130 | 1.0 | 9.0 | 0.00 | 0.00 | 0.00 | 84 | 1019.8 |
| 20260507170554 | 57 | 240 | 2.0 | 9.0 | 0.00 | 0.00 | 0.00 | 85 | 1019.8 |
| 20260507170100 | 56 | 157 | 2.0 | 6.0 | 0.00 | 0.00 | 0.00 | 85 | 1019.7 |
| 20260507165554 | 56 | 214 | 1.0 | 7.0 | 0.00 | 0.00 | 0.00 | 85 | 1019.7 |
| 20260507165055 | 56 | 175 | 1.0 | 7.0 | 0.00 | 0.00 | 0.00 | 86 | 1019.9 |
| 20260507164603 | 56 | 218 | 4.0 | 7.0 | 0.00 | 0.00 | 0.00 | 86 | 1019.8 |
| 20260507164054 | 56 | 149 | 2.0 | 7.0 | 0.00 | 0.00 | 0.00 | 87 | 1019.8 |
| 20260507163555 | 55 | 196 | 3.0 | 7.0 | 0.00 | 0.00 | 0.00 | 87 | 1019.8 |
| 20260507163100 | 55 | 175 | 2.0 | 5.0 | 0.00 | 0.00 | 0.00 | 88 | 1019.7 |
| 20260507162554 | 55 | 221 | 2.0 | 6.0 | 0.00 | 0.00 | 0.00 | 88 | 1019.8 |
| 20260507162055 | 55 | 219 | 2.0 | 6.0 | 0.00 | 0.00 | 0.00 | 89 | 1019.7 |
| 20260507161601 | 55 | 234 | 1.0 | 6.0 | 0.00 | 0.00 | 0.00 | 89 | 1019.8 |
| 20260507161053 | 55 | 162 | 1.0 | 8.0 | 0.00 | 0.00 | 0.00 | 89 | 1019.7 |
| 20260507160556 | 55 | 157 | 3.0 | 8.0 | 0.00 | 0.00 | 0.00 | 89 | 1019.7 |
| 20260507160056 | 54 | 203 | 1.0 | 6.0 | 0.00 | 0.00 | 0.00 | 90 | 1019.8 |
| 20260507155554 | 54 | 143 | 1.0 | 6.0 | 0.00 | 0.00 | 0.00 | 90 | 1019.7 |
| 20260507155053 | 54 | 126 | 1.0 | 4.0 | 0.00 | 0.00 | 0.00 | 90 | 1019.8 |
| 20260507154602 | 54 | 153 | 1.0 | 5.0 | 0.00 | 0.00 | 0.00 | 90 | 1019.8 |
| 20260507154054 | 54 | 115 | 1.0 | 5.0 | 0.00 | 0.00 | 0.00 | 90 | 1019.8 |
| 20260507153554 | 54 | 151 | 1.0 | 7.0 | 0.00 | 0.00 | 0.00 | 90 | 1019.8 |
| 20260507153105 | 54 | 130 | 2.0 | 7.0 | 0.00 | 0.00 | 0.00 | 90 | 1019.8 |
| 20260507152554 | 54 | 150 | 3.0 | 7.0 | 0.00 | 0.00 | 0.00 | 91 | 1019.9 |
| 20260507152056 | 54 | 127 | 3.0 | 7.0 | 0.00 | 0.00 | 0.00 | 91 | 1019.8 |
| 20260507151554 | 54 | 183 | 0.0 | 6.0 | 0.00 | 0.00 | 0.00 | 91 | 1019.8 |
| 20260507151057 | 53 | 182 | 2.0 | 6.0 | 0.00 | 0.00 | 0.00 | 91 | 1019.8 |
| 20260507150552 | 53 | 154 | 2.0 | 6.0 | 0.00 | 0.00 | 0.00 | 91 | 1019.8 |
| 20260507150052 | 53 | 161 | 2.0 | 7.0 | 0.00 | 0.00 | 0.00 | 91 | 1019.8 |
| 20260507145554 | 53 | 178 | 2.0 | 7.0 | 0.00 | 0.00 | 0.00 | 91 | 1019.7 |
| 20260507145053 | 53 | 138 | 3.0 | 7.0 | 0.00 | 0.00 | 0.00 | 91 | 1019.7 |
| 20260507144555 | 53 | 161 | 3.0 | 7.0 | 0.00 | 0.00 | 0.00 | 91 | 1019.7 |
| 20260507144052 | 53 | 151 | 2.0 | 6.0 | 0.00 | 0.00 | 0.00 | 91 | 1019.8 |
| 20260507143556 | 53 | 167 | 2.0 | 6.0 | 0.00 | 0.00 | 0.00 | 91 | 1019.7 |
| 20260507143056 | 53 | 161 | 1.0 | 7.0 | 0.00 | 0.00 | 0.00 | 91 | 1019.7 |
| 20260507142555 | 53 | 184 | 3.0 | 8.0 | 0.00 | 0.00 | 0.00 | 91 | 1019.7 |
| 20260507142054 | 53 | 173 | 3.0 | 9.0 | 0.00 | 0.00 | 0.00 | 91 | 1019.6 |
| 20260507141558 | 53 | 155 | 3.0 | 9.0 | 0.00 | 0.00 | 0.00 | 91 | 1019.7 |
| 20260507141054 | 53 | 160 | 3.0 | 9.0 | 0.00 | 0.00 | 0.00 | 91 | 1019.6 |
| 20260507140553 | 53 | 165 | 1.0 | 5.0 | 0.00 | 0.00 | 0.00 | 92 | 1019.6 |
| 20260507140106 | 53 | 211 | 1.0 | 7.0 | 0.00 | 0.00 | 0.00 | 92 | 1019.6 |
| 20260507135554 | 53 | 216 | 2.0 | 7.0 | 0.00 | 0.00 | 0.00 | 92 | 1019.6 |
| 20260507135054 | 53 | 180 | 1.0 | 6.0 | 0.00 | 0.00 | 0.00 | 92 | 1019.5 |
| 20260507134553 | 53 | 222 | 2.0 | 6.0 | 0.00 | 0.00 | 0.00 | 92 | 1019.4 |
| 20260507134053 | 53 | 110 | 2.0 | 6.0 | 0.00 | 0.00 | 0.00 | 92 | 1019.4 |
| 20260507133555 | 53 | 172 | 3.0 | 6.0 | 0.00 | 0.00 | 0.00 | 92 | 1019.4 |
| 20260507133101 | 53 | 164 | 2.0 | 6.0 | 0.00 | 0.00 | 0.00 | 92 | 1019.3 |
| 20260507132554 | 53 | 168 | 2.0 | 5.0 | 0.00 | 0.00 | 0.00 | 92 | 1019.3 |
| 20260507132053 | 53 | 159 | 2.0 | 7.0 | 0.00 | 0.00 | 0.00 | 92 | 1019.3 |
| 20260507131604 | 53 | 150 | 3.0 | 7.0 | 0.00 | 0.00 | 0.00 | 92 | 1019.3 |
| 20260507131055 | 53 | 148 | 3.0 | 7.0 | 0.00 | 0.00 | 0.00 | 92 | 1019.3 |
| 20260507130554 | 53 | 140 | 3.0 | 7.0 | 0.00 | 0.00 | 0.00 | 92 | 1019.3 |
| 20260507130108 | 53 | 136 | 2.0 | 6.0 | 0.00 | 0.00 | 0.00 | 92 | 1019.2 |
| 20260507125554 | 53 | 189 | 3.0 | 7.0 | 0.00 | 0.00 | 0.00 | 92 | 1019.2 |
| 20260507125055 | 53 | 177 | 1.0 | 7.0 | 0.00 | 0.00 | 0.00 | 92 | 1019.2 |
| 20260507124634 | 53 | 150 | 3.0 | 6.0 | 0.00 | 0.00 | 0.00 | 92 | 1019.1 |
| 20260507124054 | 53 | 219 | 1.0 | 5.0 | 0.00 | 0.00 | 0.00 | 92 | 1019.1 |
| 20260507123554 | 53 | 215 | 1.0 | 6.0 | 0.00 | 0.00 | 0.00 | 92 | 1019.2 |
| 20260507123057 | 53 | 227 | 1.0 | 6.0 | 0.00 | 0.00 | 0.00 | 92 | 1019.2 |
| 20260507122554 | 53 | 198 | 1.0 | 6.0 | 0.00 | 0.00 | 0.00 | 92 | 1019.2 |
| 20260507122054 | 53 | 224 | 1.0 | 6.0 | 0.00 | 0.00 | 0.00 | 92 | 1019.2 |
| 20260507121557 | 53 | 238 | 1.0 | 5.0 | 0.00 | 0.00 | 0.00 | 92 | 1019.1 |
| 20260507121051 | 53 | 225 | 0.0 | 3.0 | 0.00 | 0.00 | 0.00 | 92 | 1019.1 |
| 20260507120551 | 53 | 217 | 1.0 | 4.0 | 0.00 | 0.00 | 0.00 | 92 | 1019.2 |
| 20260507120058 | 53 | 224 | 1.0 | 5.0 | 0.00 | 0.00 | 0.00 | 92 | 1019.1 |
| 20260507115555 | 53 | 230 | 1.0 | 6.0 | 0.00 | 0.00 | 0.00 | 92 | 1019.2 |
| 20260507115057 | 53 | 179 | 2.0 | 6.0 | 0.00 | 0.00 | 0.00 | 92 | 1019.2 |
| 20260507114612 | 53 | 177 | 1.0 | 6.0 | 0.00 | 0.00 | 0.00 | 92 | 1019.2 |
| 20260507114054 | 53 | 227 | 3.0 | 5.0 | 0.00 | 0.00 | 0.00 | 92 | 1019.4 |
| 20260507113554 | 53 | 182 | 2.0 | 5.0 | 0.00 | 0.00 | 0.00 | 92 | 1019.4 |
| 20260507113057 | 53 | 221 | 1.0 | 5.0 | 0.00 | 0.00 | 0.00 | 92 | 1019.4 |
| 20260507112556 | 53 | 202 | 0.0 | 7.0 | 0.00 | 0.00 | 0.00 | 92 | 1019.4 |
| 20260507112054 | 53 | 178 | 2.0 | 7.0 | 0.00 | 0.00 | 0.00 | 92 | 1019.4 |
| 20260507111553 | 53 | 229 | 1.0 | 7.0 | 0.00 | 0.00 | 0.00 | 92 | 1019.4 |
| 20260507111054 | 53 | 253 | 1.0 | 5.0 | 0.00 | 0.00 | 0.00 | 92 | 1019.4 |
| 20260507110554 | 53 | 240 | 1.0 | 4.0 | 0.00 | 0.00 | 0.00 | 92 | 1019.4 |
| 20260507110054 | 53 | 0 | 0.0 | 4.0 | 0.00 | 0.00 | 0.00 | 92 | 1019.3 |
| 20260507105554 | 53 | 248 | 1.0 | 6.0 | 0.00 | 0.00 | 0.00 | 92 | 1019.3 |
| 20260507105055 | 53 | 223 | 1.0 | 6.0 | 0.00 | 0.00 | 0.00 | 92 | 1019.4 |
| 20260507104557 | 53 | 165 | 0.0 | 5.0 | 0.00 | 0.00 | 0.00 | 92 | 1019.4 |
| 20260507104055 | 53 | 210 | 1.0 | 5.0 | 0.00 | 0.00 | 0.00 | 92 | 1019.4 |
| 20260507103556 | 53 | 213 | 1.0 | 5.0 | 0.00 | 0.00 | 0.00 | 92 | 1019.4 |
| 20260507103056 | 53 | 219 | 1.0 | 5.0 | 0.00 | 0.00 | 0.00 | 92 | 1019.4 |
| 20260507102554 | 53 | 200 | 1.0 | 5.0 | 0.00 | 0.00 | 0.00 | 92 | 1019.5 |
| 20260507102055 | 53 | 223 | 1.0 | 5.0 | 0.00 | 0.00 | 0.00 | 92 | 1019.5 |
| 20260507101557 | 53 | 227 | 0.0 | 3.0 | 0.00 | 0.00 | 0.00 | 92 | 1019.5 |
| 20260507101055 | 53 | 260 | 0.0 | 7.0 | 0.00 | 0.00 | 0.00 | 92 | 1019.5 |
| 20260507100554 | 53 | 213 | 1.0 | 7.0 | 0.00 | 0.00 | 0.00 | 92 | 1019.4 |
| 20260507100058 | 53 | 243 | 1.0 | 5.0 | 0.00 | 0.00 | 0.00 | 92 | 1019.4 |
| 20260507095554 | 53 | 294 | 1.0 | 5.0 | 0.00 | 0.00 | 0.00 | 92 | 1019.4 |
| 20260507095054 | 53 | 204 | 1.0 | 5.0 | 0.00 | 0.00 | 0.00 | 92 | 1019.5 |
| 20260507094553 | 53 | 236 | 0.0 | 7.0 | 0.00 | 0.00 | 0.00 | 92 | 1019.6 |
| 20260507094054 | 53 | 222 | 1.0 | 7.0 | 0.00 | 0.00 | 0.00 | 92 | 1019.6 |
| 20260507093554 | 53 | 220 | 3.0 | 7.0 | 0.00 | 0.00 | 0.00 | 92 | 1019.7 |
| 20260507093058 | 53 | 219 | 2.0 | 5.0 | 0.00 | 0.00 | 0.00 | 92 | 1019.6 |
| 20260507092554 | 53 | 242 | 1.0 | 5.0 | 0.00 | 0.00 | 0.00 | 92 | 1019.6 |
| 20260507092053 | 53 | 238 | 0.0 | 7.0 | 0.00 | 0.00 | 0.00 | 92 | 1019.6 |
| 20260507091559 | 53 | 211 | 2.0 | 7.0 | 0.00 | 0.00 | 0.00 | 92 | 1019.6 |
| 20260507091056 | 53 | 219 | 1.0 | 6.0 | 0.00 | 0.00 | 0.00 | 92 | 1019.7 |
| 20260507090554 | 54 | 209 | 1.0 | 6.0 | 0.00 | 0.00 | 0.00 | 92 | 1019.7 |
| 20260507090106 | 54 | 199 | 1.0 | 6.0 | 0.00 | 0.00 | 0.00 | 92 | 1019.8 |
| 20260507085554 | 54 | 223 | 1.0 | 6.0 | 0.00 | 0.00 | 0.00 | 92 | 1019.8 |
| 20260507085055 | 54 | 218 | 2.0 | 7.0 | 0.00 | 0.00 | 0.00 | 91 | 1019.8 |
| 20260507084555 | 54 | 235 | 1.0 | 7.0 | 0.00 | 0.00 | 0.00 | 92 | 1019.9 |
| 20260507084055 | 54 | 217 | 3.0 | 7.0 | 0.00 | 0.00 | 0.00 | 92 | 1019.8 |
| 20260507083554 | 54 | 192 | 0.0 | 5.0 | 0.00 | 0.00 | 0.00 | 92 | 1019.9 |
| 20260507083058 | 54 | 167 | 2.0 | 5.0 | 0.00 | 0.00 | 0.00 | 92 | 1019.9 |
| 20260507082554 | 54 | 0 | 2.0 | 5.0 | 0.00 | 0.00 | 0.00 | 92 | 1019.9 |
| 20260507082055 | 54 | 251 | 1.0 | 5.0 | 0.00 | 0.00 | 0.00 | 92 | 1019.9 |
| 20260507081557 | 54 | 209 | 1.0 | 4.0 | 0.00 | 0.00 | 0.00 | 92 | 1019.9 |
| 20260507081055 | 54 | 219 | 1.0 | 6.0 | 0.00 | 0.00 | 0.00 | 92 | 1020.0 |
| 20260507080551 | 54 | 148 | 2.0 | 6.0 | 0.00 | 0.00 | 0.00 | 92 | 1020.0 |
| 20260507075558 | 54 | 0 | 1.0 | 5.0 | 0.00 | 0.00 | 0.00 | 92 | 1020.0 |
| 20260507075059 | 54 | 0 | 1.0 | 7.0 | 0.00 | 0.00 | 0.00 | 92 | 1019.9 |
| 20260507074607 | 54 | 200 | 2.0 | 7.0 | 0.00 | 0.00 | 0.00 | 92 | 1020.0 |
| 20260507074053 | 54 | 153 | 1.0 | 7.0 | 0.00 | 0.00 | 0.00 | 92 | 1020.0 |
| 20260507073557 | 55 | 154 | 3.0 | 7.0 | 0.00 | 0.00 | 0.00 | 92 | 1020.0 |
| 20260507073058 | 55 | 208 | 2.0 | 7.0 | 0.00 | 0.00 | 0.00 | 92 | 1020.1 |
| 20260507072555 | 55 | 175 | 3.0 | 7.0 | 0.00 | 0.00 | 0.00 | 92 | 1020.0 |
| 20260507072054 | 55 | 169 | 3.0 | 7.0 | 0.00 | 0.00 | 0.00 | 92 | 1020.0 |
| 20260507071555 | 55 | 241 | 2.0 | 7.0 | 0.00 | 0.00 | 0.00 | 92 | 1019.9 |
| 20260507071056 | 55 | 170 | 1.0 | 5.0 | 0.00 | 0.00 | 0.00 | 92 | 1019.9 |
| 20260507070554 | 55 | 243 | 2.0 | 6.0 | 0.00 | 0.00 | 0.00 | 92 | 1020.0 |
| 20260507070115 | 55 | 239 | 1.0 | 7.0 | 0.00 | 0.00 | 0.00 | 92 | 1019.9 |
| 20260507065555 | 55 | 221 | 2.0 | 7.0 | 0.00 | 0.00 | 0.00 | 92 | 1019.9 |
| 20260507065054 | 55 | 238 | 2.0 | 7.0 | 0.00 | 0.00 | 0.00 | 92 | 1019.9 |
| 20260507064605 | 55 | 164 | 3.0 | 7.0 | 0.00 | 0.00 | 0.00 | 92 | 1019.9 |
| 20260507064056 | 55 | 232 | 2.0 | 5.0 | 0.00 | 0.00 | 0.00 | 92 | 1019.9 |
| 20260507063557 | 55 | 219 | 2.0 | 5.0 | 0.00 | 0.00 | 0.00 | 92 | 1019.9 |
| 20260507063059 | 55 | 223 | 2.0 | 9.0 | 0.00 | 0.00 | 0.00 | 92 | 1019.9 |
| 20260507062555 | 55 | 242 | 2.0 | 9.0 | 0.00 | 0.00 | 0.00 | 92 | 1019.8 |
| 20260507062057 | 55 | 221 | 2.0 | 9.0 | 0.00 | 0.00 | 0.00 | 92 | 1019.8 |
| 20260507061554 | 55 | 215 | 2.0 | 7.0 | 0.00 | 0.00 | 0.00 | 92 | 1019.9 |
| 20260507061057 | 55 | 222 | 2.0 | 7.0 | 0.00 | 0.00 | 0.00 | 92 | 1019.8 |
| 20260507060559 | 55 | 206 | 2.0 | 7.0 | 0.00 | 0.00 | 0.00 | 92 | 1019.8 |
| 20260507060056 | 55 | 221 | 1.0 | 5.0 | 0.00 | 0.00 | 0.00 | 92 | 1019.8 |
| 20260507055554 | 55 | 242 | 2.0 | 6.0 | 0.00 | 0.00 | 0.00 | 91 | 1019.7 |
| 20260507055051 | 55 | 233 | 1.0 | 6.0 | 0.00 | 0.00 | 0.00 | 91 | 1019.7 |
| 20260507054556 | 55 | 242 | 2.0 | 8.0 | 0.00 | 0.00 | 0.00 | 91 | 1019.7 |
| 20260507054055 | 55 | 258 | 2.0 | 8.0 | 0.00 | 0.00 | 0.00 | 91 | 1019.6 |
| 20260507053552 | 55 | 219 | 2.0 | 8.0 | 0.00 | 0.00 | 0.00 | 91 | 1019.6 |
| 20260507053054 | 55 | 236 | 1.0 | 5.0 | 0.00 | 0.00 | 0.00 | 91 | 1019.6 |
| 20260507052555 | 55 | 0 | 2.0 | 9.0 | 0.00 | 0.00 | 0.00 | 91 | 1019.7 |
| 20260507052055 | 55 | 199 | 2.0 | 9.0 | 0.00 | 0.00 | 0.00 | 91 | 1019.7 |
| 20260507051603 | 55 | 214 | 1.0 | 9.0 | 0.00 | 0.00 | 0.00 | 91 | 1019.6 |
| 20260507051054 | 55 | 0 | 3.0 | 9.0 | 0.00 | 0.00 | 0.00 | 91 | 1019.7 |
| 20260507050553 | 55 | 226 | 3.0 | 11.0 | 0.00 | 0.00 | 0.00 | 91 | 1019.7 |
| 20260507050054 | 55 | 219 | 3.0 | 11.0 | 0.00 | 0.00 | 0.00 | 91 | 1019.7 |
| 20260507045556 | 56 | 259 | 3.0 | 9.0 | 0.00 | 0.00 | 0.00 | 91 | 1019.7 |
| 20260507045054 | 56 | 244 | 2.0 | 7.0 | 0.00 | 0.00 | 0.00 | 90 | 1019.7 |
| 20260507044556 | 56 | 165 | 2.0 | 8.0 | 0.00 | 0.00 | 0.00 | 90 | 1019.7 |
| 20260507044054 | 56 | 229 | 3.0 | 9.0 | 0.00 | 0.00 | 0.00 | 90 | 1019.6 |
| 20260507043554 | 56 | 206 | 2.0 | 9.0 | 0.00 | 0.00 | 0.00 | 90 | 1019.6 |
| 20260507043055 | 57 | 218 | 2.0 | 8.0 | 0.00 | 0.00 | 0.00 | 90 | 1019.6 |
| 20260507042554 | 57 | 234 | 1.0 | 8.0 | 0.00 | 0.00 | 0.00 | 89 | 1019.6 |
| 20260507042058 | 57 | 234 | 2.0 | 7.0 | 0.00 | 0.00 | 0.00 | 89 | 1019.6 |
| 20260507041555 | 57 | 225 | 1.0 | 4.0 | 0.00 | 0.00 | 0.00 | 89 | 1019.5 |
| 20260507041052 | 58 | 242 | 1.0 | 5.0 | 0.00 | 0.00 | 0.00 | 89 | 1019.4 |
| 20260507040557 | 58 | 200 | 0.0 | 5.0 | 0.00 | 0.00 | 0.00 | 89 | 1019.3 |
| 20260507035555 | 59 | 213 | 2.0 | 6.0 | 0.00 | 0.00 | 0.00 | 89 | 1019.2 |
| 20260507035054 | 59 | 158 | 2.0 | 8.0 | 0.00 | 0.00 | 0.00 | 89 | 1019.2 |
| 20260507034559 | 59 | 123 | 3.0 | 8.0 | 0.00 | 0.00 | 0.00 | 89 | 1019.2 |
| 20260507034054 | 59 | 138 | 3.0 | 8.0 | 0.00 | 0.00 | 0.00 | 89 | 1019.0 |
| 20260507033555 | 59 | 157 | 2.0 | 6.0 | 0.00 | 0.00 | 0.00 | 89 | 1019.1 |
| 20260507033103 | 59 | 108 | 2.0 | 6.0 | 0.00 | 0.00 | 0.00 | 89 | 1018.9 |
| 20260507032555 | 59 | 149 | 1.0 | 5.0 | 0.00 | 0.00 | 0.00 | 88 | 1018.9 |
| 20260507032054 | 59 | 131 | 1.0 | 5.0 | 0.00 | 0.00 | 0.00 | 88 | 1018.8 |
| 20260507031609 | 59 | 139 | 2.0 | 5.0 | 0.00 | 0.00 | 0.00 | 88 | 1018.8 |
| 20260507031056 | 59 | 166 | 2.0 | 5.0 | 0.00 | 0.00 | 0.00 | 88 | 1018.8 |
| 20260507030554 | 59 | 183 | 0.0 | 4.0 | 0.00 | 0.00 | 0.00 | 88 | 1018.8 |
| 20260507030055 | 59 | 0 | 0.0 | 3.0 | 0.00 | 0.00 | 0.00 | 87 | 1018.8 |